Tracking 19247 objects as of 25-Sep-2018
HD Live streaming from Space Station
objects crossing your sky now

SL-12 DEB

Track SL-12 DEB now!
10-day predictions


NORAD ID: 42973
Int'l Code: 2010-041N
Perigee: 687.7 km
Apogee: 18,859.4 km
Inclination: 64.9 °
Period: 340.3 minutes
Semi major axis: 16144 km
RCS: Unknown
Launch date: September 2, 2010
Source: Commonwealth of Independent States (former USSR) (CIS)
Launch site: TYURATAM MISSILE AND SPACE COMPLEX (TTMTR)

Note: This is SATELLITE DEBRIS
aabbcc
Your satellite tracking list
Your tracking list is empty




NASA's NSSDC Master Catalog

Two Line Element Set (TLE):
1 42973U 10041N   18244.57471896 -.00000016  00000-0 -36727-4 0  9995
2 42973  64.8824  51.5350 5627785  70.5566 340.3103  4.23217543 15356
Source of the keplerian elements: AFSPC